Demopolis Municipal Airport, AL

6:59 PM CDT on October 14, 2019 (GMT -0500)
Demopolis Municipal Airport

Weather History for KDYA - September, 2019

Change the Weather History Date:

Monday, September 16, 2019

  Actual Average (KNMM) Record (KNMM)
Temperature  
Mean Temperature 84 °F -  
Max Temperature 96 °F 83 °F 96 °F (2016)
Min Temperature 71 °F 63 °F 51 °F (2007)
Cooling Degree Days 18    
Growing Degree Days 34 (Base 50)    
Moisture  
Dew Point 68 °F    
Average Humidity 61    
Maximum Humidity 100    
Minimum Humidity 33    
Precipitation  
Precipitation 0.00 in - - ()
Sea Level Pressure  
Sea Level Pressure 30.03 in    
Wind  
Wind Speed 1 mph ()    
Max Wind Speed 9 mph    
Max Gust Speed -    
Visibility 8.1 miles    
Events      
Averages and records for this station are not official NWS values.
T = Trace of Precipitation, MM = Missing Value Source: Averaged Metar Reports

Daily Weather History Graph

Daily Weather History Graph

Search for Another Location

Airport or City:

Astronomy

Sep. 16, 2019 Rise Set
Actual Time 6:36 AM CDT 6:56 PM CDT
Civil Twilight 6:11 AM CDT 7:21 PM CDT
Nautical Twilight 5:42 AM CDT 7:50 PM CDT
Astronomical Twilight 5:13 AM CDT 8:19 PM CDT
Moon 8:38 PM CDT (9/16) 8:37 AM CDT (9/16)
Length of Visible Light 13h 09m
Length of Day
12h 20m
Waning Gibbous, 94% of the Moon is Illuminated
Sep 16
Waning Gibbous
Sep 21
Last Quarter
Sep 28
New
Oct 5
First Quarter
Oct 13
Full

Hourly Weather History & Observations

Time (CDT) Temp. Heat Index Dew Point Humidity Pressure Visibility Wind Dir Wind Speed Gust Speed Precip Events Conditions
12:15 AM 73.4 °F - 72.5 °F 97% 30.03 in 7.0 mi Calm Calm - N/A   Clear
12:35 AM 72.9 °F - 72.5 °F 99% 30.03 in 7.0 mi Calm Calm - N/A   Clear
12:55 AM 72.5 °F - 72.5 °F 100% 30.03 in 7.0 mi Calm Calm - N/A   Clear
1:15 AM 72.5 °F - 72.5 °F 100% 30.03 in 7.0 mi Calm Calm - N/A   Clear
1:35 AM 72.0 °F - 72.0 °F 100% 30.03 in 7.0 mi Calm Calm - N/A   Clear
1:55 AM 72.1 °F - 72.1 °F 100% 30.04 in 7.0 mi Calm Calm - N/A   Clear
2:15 AM 71.8 °F - 71.8 °F 100% 30.03 in 5.0 mi Calm Calm - N/A   Clear
2:35 AM - - - N/A% 30.03 in 7.0 mi Calm Calm - N/A   Clear
2:55 AM - - - N/A% 30.03 in 5.0 mi Calm Calm - N/A   Haze
3:35 AM - - - N/A% 30.03 in 7.0 mi Calm Calm - N/A   Clear
3:55 AM - - - N/A% 30.04 in 4.0 mi Calm Calm - N/A   Haze
4:35 AM - - - N/A% 30.04 in 5.0 mi Calm Calm - N/A   Haze
5:15 AM - - - N/A% 30.04 in 5.0 mi Calm Calm - N/A   Haze
5:35 AM - - - N/A% 30.05 in 5.0 mi Calm Calm - N/A   Haze
5:55 AM - - - N/A% 30.05 in 5.0 mi Calm Calm - N/A   Haze
6:15 AM - - - N/A% 30.05 in 3.0 mi Calm Calm - N/A   Clear
6:35 AM - - - N/A% 30.06 in 5.0 mi Calm Calm - N/A   Haze
6:55 AM - - - N/A% 30.06 in 5.0 mi Calm Calm - N/A   Haze
7:15 AM - - - N/A% 30.07 in 5.0 mi Calm Calm - N/A   Haze
7:35 AM - - - N/A% 30.07 in 7.0 mi Calm Calm - N/A   Clear
7:55 AM - - - N/A% 30.08 in 10.0 mi Calm Calm - N/A   Clear
8:35 AM 76.8 °F - 73.2 °F 89% 30.08 in 10.0 mi Calm Calm - N/A   Clear
9:15 AM 81.7 °F 86.5 °F 72.3 °F 73% 30.09 in 10.0 mi Calm Calm - N/A   Clear
9:35 AM 83.7 °F 88.3 °F 70.9 °F 65% 30.09 in 10.0 mi Calm Calm - N/A   Clear
9:55 AM 85.3 °F 90.1 °F 70.5 °F 61% 30.09 in 10.0 mi Calm Calm - N/A   Clear
10:15 AM 86.4 °F 91.1 °F 69.8 °F 58% 30.09 in 10.0 mi Calm Calm - N/A   Clear
10:35 AM 88.5 °F 92.7 °F 69.1 °F 52% 30.09 in 10.0 mi ESE 3.5 mph - N/A   Clear
10:55 AM 89.8 °F 93.8 °F 68.4 °F 49% 30.09 in 7.0 mi East 3.5 mph - N/A   Clear
11:15 AM 89.8 °F 93.3 °F 67.6 °F 48% 30.08 in 10.0 mi East 5.8 mph - N/A   Clear
11:35 AM 91.2 °F 94.1 °F 66.2 °F 44% 30.08 in 7.0 mi Calm Calm - N/A   Clear
11:55 AM 91.9 °F 95.4 °F 66.9 °F 44% 30.07 in 7.0 mi ENE 4.6 mph - N/A   Clear
12:15 PM 93.4 °F 96.6 °F 66.4 °F 41% 30.07 in 10.0 mi Calm Calm - N/A   Scattered Clouds
12:35 PM 93.6 °F 96.4 °F 65.8 °F 40% 30.06 in 10.0 mi ESE 5.8 mph - N/A   Scattered Clouds
12:55 PM 94.1 °F 97.3 °F 66.7 °F 40% 30.05 in 10.0 mi NNW 5.8 mph - N/A   Scattered Clouds
1:15 PM 93.6 °F 96.9 °F 66.4 °F 41% 30.05 in 7.0 mi NNW 6.9 mph - N/A   Scattered Clouds
1:35 PM 94.8 °F 96.7 °F 64.4 °F 36% 30.04 in 7.0 mi NE 5.8 mph - N/A   Scattered Clouds
1:55 PM 96.1 °F 97.8 °F 63.1 °F 34% 30.04 in 10.0 mi North 4.6 mph - N/A   Scattered Clouds
2:15 PM 94.1 °F 95.0 °F 62.8 °F 35% 30.02 in 10.0 mi Calm Calm - N/A   Clear
2:35 PM 96.1 °F 97.3 °F 62.6 °F 33% 30.02 in 10.0 mi NNE 5.8 mph - N/A   Scattered Clouds
2:55 PM 95.0 °F 96.5 °F 63.1 °F 35% 30.01 in 10.0 mi North 9.2 mph - N/A   Clear
3:15 PM 95.7 °F 96.7 °F 62.6 °F 33% 30.01 in 7.0 mi ENE 4.6 mph - N/A   Clear
3:35 PM 95.9 °F 97.5 °F 63.0 °F 34% 30.00 in 7.0 mi Calm Calm - N/A   Clear
3:55 PM 95.2 °F 96.3 °F 62.6 °F 34% 29.99 in 7.0 mi North 6.9 mph - N/A   Scattered Clouds
4:15 PM 95.9 °F 97.0 °F 62.4 °F 33% 29.99 in 7.0 mi NNE 5.8 mph - N/A   Clear
4:35 PM 95.5 °F 96.5 °F 62.4 °F 33% 29.98 in 10.0 mi North 8.1 mph - N/A   Clear
4:55 PM 95.2 °F 95.9 °F 61.9 °F 33% 29.98 in 10.0 mi North 4.6 mph - N/A   Clear
5:15 PM 94.6 °F 95.9 °F 63.1 °F 35% 29.98 in 10.0 mi North 5.8 mph - N/A   Clear
5:35 PM 93.9 °F 95.6 °F 64.2 °F 37% 29.98 in 7.0 mi North 5.8 mph - N/A   Clear
5:55 PM 93.2 °F 95.3 °F 64.9 °F 39% 29.98 in 10.0 mi North 5.8 mph - N/A   Clear
6:15 PM 92.3 °F 95.1 °F 66.2 °F 42% 29.98 in 10.0 mi NNW 3.5 mph - N/A   Clear
6:55 PM 87.3 °F 92.0 °F 69.6 °F 56% 29.97 in 7.0 mi Calm Calm - N/A   Clear
7:15 PM 85.1 °F 89.4 °F 69.8 °F 60% 29.97 in 10.0 mi Calm Calm - N/A   Clear
7:35 PM 82.8 °F 86.7 °F 70.0 °F 65% 29.97 in 10.0 mi Calm Calm - N/A   Clear
7:55 PM 81.0 °F 84.7 °F 70.7 °F 71% 29.98 in 10.0 mi Calm Calm - N/A   Clear
8:35 PM 77.9 °F - 70.0 °F 76% 29.97 in 10.0 mi Calm Calm - N/A   Clear
8:55 PM 77.5 °F - 70.2 °F 78% 29.98 in 10.0 mi Calm Calm - N/A   Clear
9:15 PM 77.0 °F - 69.8 °F 78% 29.98 in 10.0 mi Calm Calm - N/A   Clear
9:35 PM 76.1 °F - 70.0 °F 81% 29.99 in 7.0 mi Calm Calm - N/A   Clear
9:55 PM 75.6 °F - 69.8 °F 82% 29.99 in 10.0 mi Calm Calm - N/A   Clear
10:15 PM 74.8 °F - 70.0 °F 85% 29.99 in 10.0 mi Calm Calm - N/A   Clear
10:35 PM 74.3 °F - 69.4 °F 85% 29.99 in 10.0 mi Calm Calm - N/A   Clear
10:55 PM 74.1 °F - 69.8 °F 86% 29.99 in 10.0 mi Calm Calm - N/A   Clear
11:15 PM 73.8 °F - 70.0 °F 88% 29.99 in 10.0 mi Calm Calm - N/A   Clear
11:35 PM 73.4 °F - 69.8 °F 88% 29.99 in 10.0 mi Calm Calm - N/A   Clear
11:55 PM 73.0 °F - 69.8 °F 90% 29.99 in 10.0 mi Calm Calm - N/A   Clear